Location: Asheville, NC
(35.6000°N, 82.5500°W)
Time: 16:15:42
(UTC-05:00)

Vanguard 2 - Pass Details

Date: 10 February 2018
Orbit: 553 x 2939 km, 32.9° (Epoch: 20 February)

Event Time Altitude Azimuth Distance (km) Brightness Sun altitude
Rises 23:27:53 0° 265° (W) 2,926 - -62.4°
Reaches altitude 10° 23:30:20 10° 262° (W) 1,895 - -62.8°
Maximum altitude 23:34:21 60° 182° (S) 631 - -63.3°
Drops below altitude 10° 23:38:23 10° 102° (ESE) 1,903 - -63.8°
Sets 23:40:51 0° 99° (E) 2,940 - -64.1°
